EW6013 Weather Reports


Display with metric or nautical units.
time (UTC)temp
F
wind
direction
speed
MPH
gust
MPH
rain 1hr
in
rain 24hr
in
rain mn
in
humidity
%
barometer
mb
20260507161515 60 290 0.0 12.0 0.00 0.21 0.01 46 1004.7
20260507161015 60 192 1.0 12.0 0.00 0.21 0.01 44 1004.7
20260507160515 61 0.0 1.0 0.00 0.21 0.01 48 1004.9
20260507160015 60 263 0.0 1.0 0.00 0.21 0.01 53 1004.9
20260507155515 60 302 0.0 1.0 0.00 0.21 0.01 50 1004.9
20260507155015 60 0.0 0.0 0.00 0.21 0.01 50 1004.9
20260507154515 60 0.0 0.0 0.00 0.21 0.01 52 1005.0
20260507154015 60 0.0 14.0 0.00 0.21 0.01 49 1005.0
20260507153535 60 308 0.0 14.0 0.00 0.21 0.01 50 1005.1
20260507153015 60 0.0 3.0 0.00 0.21 0.01 50 1005.0
20260507152535 59 349 0.0 3.0 0.00 0.21 0.01 53 1005.1
20260507152015 58 0.0 0.0 0.00 0.21 0.01 58 1005.2
20260507151515 58 0.0 0.0 0.00 0.21 0.01 60 1005.3
20260507151015 58 0.0 0.0 0.00 0.21 0.01 60 1005.1
20260507150515 58 0.0 1.0 0.00 0.21 0.01 60 1005.1
20260507150015 57 186 0.0 1.0 0.00 0.21 0.01 62 1005.2
20260507145555 57 0.0 1.0 0.00 0.21 0.01 59 1005.3
20260507145035 57 224 0.0 1.0 0.00 0.21 0.01 65 1005.3
20260507144555 57 0.0 0.0 0.00 0.21 0.01 64 1005.3
20260507144015 57 0.0 1.0 0.00 0.21 0.01 63 1005.3
20260507143515 57 292 0.0 7.0 0.00 0.21 0.01 63 1005.2
20260507143035 57 301 0.0 7.0 0.00 0.21 0.01 64 1005.3
20260507142514 57 318 0.0 5.0 0.00 0.21 0.01 63 1005.3
20260507142015 57 270 0.0 5.0 0.00 0.21 0.01 65 1005.3
20260507141515 57 265 0.0 2.0 0.00 0.21 0.01 66 1005.2
20260507141015 57 0.0 1.0 0.00 0.21 0.01 65 1005.1
20260507140515 57 301 0.0 2.0 0.00 0.21 0.01 65 1005.1
20260507140015 57 163 0.0 2.0 0.00 0.21 0.01 65 1005.1
20260507135515 57 0.0 1.0 0.00 0.21 0.01 66 1005.1
20260507135035 56 98 0.0 1.0 0.00 0.21 0.01 67 1005.1
20260507134515 56 0.0 0.0 0.00 0.21 0.01 67 1005.1
20260507134015 55 0.0 1.0 0.00 0.21 0.01 67 1005.1
20260507133515 55 325 0.0 1.0 0.00 0.21 0.01 68 1005.0
20260507133015 55 277 0.0 1.0 0.00 0.21 0.01 69 1005.1
20260507132515 54 176 0.0 1.0 0.00 0.21 0.01 68 1005.1
20260507132017 54 0.0 0.0 0.00 0.21 0.01 71 1005.2
20260507131517 54 0.0 0.0 0.00 0.21 0.01 70 1005.3
20260507131017 53 0.0 0.0 0.00 0.21 0.01 73 1005.4
20260507130517 53 0.0 1.0 0.00 0.21 0.01 74 1005.4
20260507130037 53 254 0.0 1.0 0.00 0.21 0.01 73 1005.4
20260507125536 52 0.0 0.0 0.00 0.21 0.01 74 1005.4
20260507125036 52 0.0 0.0 0.00 0.21 0.01 75 1005.4
20260507124516 52 0.0 0.0 0.00 0.21 0.01 75 1005.4
20260507124017 52 0.0 0.0 0.00 0.21 0.01 76 1005.4
20260507123517 52 0.0 0.0 0.00 0.21 0.01 77 1005.4
20260507123016 51 0.0 0.0 0.00 0.21 0.01 77 1005.5
20260507122515 51 0.0 3.0 0.00 0.21 0.01 77 1005.5
20260507122016 50 45 0.0 4.0 0.00 0.21 0.01 79 1005.5
20260507121516 50 353 0.0 4.0 0.00 0.21 0.01 82 1005.5
20260507121036 50 0.0 0.0 0.00 0.21 0.01 82 1005.5
20260507120516 49 0.0 0.0 0.00 0.21 0.01 83 1005.5
20260507120016 49 0.0 0.0 0.00 0.21 0.01 84 1005.5
20260507115516 49 0.0 0.0 0.00 0.21 0.01 84 1005.6
20260507115016 49 0.0 0.0 0.00 0.21 0.01 84 1005.4
20260507114516 49 0.0 0.0 0.00 0.21 0.01 85 1005.4
20260507114017 49 0.0 0.0 0.00 0.21 0.01 86 1005.4
20260507113536 49 0.0 0.0 0.00 0.21 0.01 87 1005.4
20260507113016 49 0.0 0.0 0.00 0.21 0.01 86 1005.4
20260507112536 48 0.0 0.0 0.00 0.21 0.01 87 1005.3
20260507112016 48 0.0 0.0 0.00 0.21 0.01 87 1005.3
20260507111516 48 0.0 0.0 0.00 0.21 0.01 88 1005.3
20260507111016 48 0.0 0.0 0.00 0.21 0.01 87 1005.3
20260507110516 48 0.0 0.0 0.00 0.21 0.01 88 1005.3
20260507110036 48 0.0 0.0 0.00 0.21 0.01 88 1005.3
20260507105516 48 0.0 0.0 0.00 0.21 0.01 88 1005.2
20260507105016 48 0.0 0.0 0.00 0.21 0.01 87 1005.2
20260507104516 48 0.0 0.0 0.00 0.21 0.01 88 1005.0
20260507104016 48 0.0 0.0 0.00 0.21 0.01 87 1005.0
20260507103516 48 0.0 0.0 0.00 0.21 0.01 86 1004.8
20260507103016 48 0.0 0.0 0.00 0.21 0.01 87 1004.6
20260507102516 48 0.0 0.0 0.00 0.21 0.01 87 1004.6
20260507102036 48 0.0 0.0 0.00 0.21 0.01 87 1004.7
20260507101536 48 0.0 0.0 0.00 0.21 0.01 86 1004.5
20260507101036 48 0.0 0.0 0.00 0.21 0.01 86 1004.6
20260507100516 48 0.0 0.0 0.00 0.21 0.01 86 1004.5
20260507100016 48 0.0 0.0 0.00 0.21 0.01 87 1004.7
20260507095536 48 0.0 0.0 0.00 0.21 0.01 87 1004.5
20260507095016 48 0.0 0.0 0.00 0.21 0.01 87 1004.5
20260507094536 48 0.0 0.0 0.00 0.21 0.01 86 1004.6
20260507094016 48 0.0 0.0 0.00 0.21 0.01 86 1004.8
20260507093516 48 0.0 0.0 0.00 0.21 0.01 86 1004.9
20260507093016 48 0.0 0.0 0.00 0.21 0.01 87 1004.9
20260507092516 48 0.0 0.0 0.00 0.21 0.01 86 1004.8
20260507092016 48 0.0 0.0 0.00 0.21 0.01 87 1004.9
20260507091516 48 0.0 0.0 0.00 0.21 0.01 87 1004.9
20260507091016 48 0.0 0.0 0.00 0.21 0.01 87 1004.9
20260507090516 48 0.0 0.0 0.00 0.21 0.01 87 1005.0
20260507090036 48 0.0 0.0 0.00 0.21 0.01 87 1005.0
20260507085516 48 0.0 0.0 0.00 0.21 0.01 88 1005.1
20260507085016 48 0.0 0.0 0.00 0.21 0.01 88 1004.9
20260507084556 48 0.0 1.0 0.00 0.21 0.01 88 1004.8
20260507084016 48 301 0.0 1.0 0.00 0.21 0.01 87 1005.1
20260507083516 48 0.0 1.0 0.00 0.21 0.01 87 1005.1
20260507083016 49 255 0.0 1.0 0.00 0.21 0.01 87 1004.7
20260507082536 49 274 0.0 1.0 0.00 0.21 0.01 86 1004.8
20260507082016 49 267 0.0 1.0 0.00 0.21 0.01 86 1004.7
20260507081516 49 0.0 0.0 0.00 0.21 0.01 86 1004.8
20260507081016 49 0.0 0.0 0.00 0.21 0.01 86 1004.9
20260507080516 49 0.0 0.0 0.00 0.21 0.01 85 1004.7
20260507080016 50 0.0 0.0 0.00 0.21 0.01 85 1004.5
20260507075536 50 0.0 0.0 0.00 0.21 0.01 84 1004.5
20260507075016 50 0.0 1.0 0.00 0.21 0.01 85 1004.5
20260507074536 50 190 0.0 1.0 0.00 0.21 0.01 84 1004.6
20260507074016 50 0.0 0.0 0.00 0.21 0.01 85 1004.6
20260507073516 50 0.0 0.0 0.00 0.21 0.01 85 1004.9
20260507073016 50 0.0 0.0 0.00 0.21 0.01 85 1004.9
20260507072616 50 0.0 0.0 0.00 0.21 0.01 86 1004.5
20260507072016 50 0.0 0.0 0.00 0.21 0.01 86 1004.4
20260507071516 51 0.0 0.0 0.00 0.21 0.01 86 1004.3
20260507071016 51 0.0 1.0 0.00 0.21 0.01 86 1004.2
20260507070536 51 324 0.0 1.0 0.00 0.21 0.01 86 1004.2
20260507070016 51 0.0 0.0 0.00 0.21 0.01 86 1004.1
20260507065516 51 0.0 0.0 0.00 0.21 0.01 86 1004.2
20260507065016 51 0.0 0.0 0.00 0.21 0.01 88 1004.2
20260507064516 51 0.0 0.0 0.00 0.21 0.01 88 1003.9
20260507064036 51 0.0 0.0 0.00 0.21 0.01 88 1003.7
20260507063516 51 0.0 0.0 0.00 0.21 0.01 88 1003.9
20260507063016 51 0.0 0.0 0.00 0.21 0.01 88 1004.0
20260507062516 51 0.0 0.0 0.00 0.21 0.01 89 1004.1
20260507062016 52 0.0 0.0 0.00 0.21 0.01 89 1003.8
20260507061516 52 0.0 0.0 0.00 0.21 0.01 90 1003.9
20260507061016 52 0.0 0.0 0.00 0.21 0.01 90 1004.0
20260507060535 52 0.0 0.0 0.00 0.21 0.01 90 1004.0
20260507060015 52 0.0 0.0 0.00 0.21 0.01 90 1004.1
20260507055516 52 0.0 0.0 0.00 0.21 0.01 90 1004.1
20260507055016 52 0.0 0.0 0.00 0.21 0.01 91 1004.1
20260507054515 53 0.0 0.0 0.00 0.21 0.01 91 1004.3
20260507054015 53 0.0 0.0 0.00 0.21 0.01 91 1004.5
20260507053516 53 0.0 0.0 0.00 0.21 0.01 91 1004.6
20260507053015 53 0.0 0.0 0.00 0.21 0.01 91 1004.6
20260507052536 53 0.0 0.0 0.00 0.21 0.01 91 1004.6
20260507052015 53 0.0 0.0 0.01 0.21 0.01 91 1004.6
20260507051535 53 0.0 0.0 0.01 0.21 0.01 91 1004.4
20260507051035 53 0.0 0.0 0.01 0.21 0.01 91 1004.5
20260507050515 54 0.0 0.0 0.01 0.21 0.01 91 1004.6
20260507050016 54 0.0 0.0 0.01 0.21 0.01 91 1004.6
20260507045515 54 0.0 0.0 0.01 0.21 0.01 91 1004.6
20260507045015 54 0.0 0.0 0.01 0.21 0.01 90 1004.4
20260507044515 54 0.0 0.0 0.01 0.21 0.01 90 1004.2
20260507044015 54 0.0 0.0 0.01 0.21 0.01 91 1004.1
20260507043515 55 0.0 0.0 0.01 0.21 0.01 91 1004.2
20260507043015 55 0.0 0.0 0.01 0.21 0.01 91 1004.4
20260507042515 55 0.0 0.0 0.01 0.21 0.01 91 1004.4
20260507042015 55 0.0 0.0 0.00 0.20 0.00 91 1004.3
20260507041515 55 0.0 0.0 0.00 0.20 0.00 91 1004.3
20260507041015 55 0.0 0.0 0.00 0.20 0.00 91 1004.3
20260507040516 55 0.0 0.0 0.00 0.20 0.00 90 1004.3
20260507040015 55 0.0 0.0 0.00 0.20 0.20 90 1004.3
20260507035535 56 0.0 0.0 0.00 0.20 0.20 90 1004.3
20260507035015 56 0.0 0.0 0.00 0.20 0.20 90 1004.3
20260507034515 56 0.0 0.0 0.00 0.20 0.20 89 1004.1
20260507034015 56 0.0 0.0 0.00 0.20 0.20 89 1004.0
20260507033515 56 0.0 1.0 0.00 0.20 0.20 90 1003.9
20260507033015 56 284 0.0 1.0 0.00 0.20 0.20 90 1003.7
20260507032515 57 0.0 4.0 0.00 0.20 0.20 90 1003.7
20260507032015 57 281 0.0 4.0 0.00 0.20 0.20 90 1003.6
20260507031515 58 0.0 1.0 0.00 0.20 0.20 91 1003.5
20260507031015 58 289 0.0 1.0 0.00 0.20 0.20 92 1003.4
20260507030515 58 0.0 0.0 0.00 0.20 0.20 91 1003.2
20260507030015 59 0.0 12.0 0.00 0.20 0.20 91 1003.1
20260507025515 59 257 1.0 12.0 0.00 0.20 0.20 92 1003.1
20260507025015 59 272 0.0 12.0 0.00 0.20 0.20 92 1003.2
20260507024515 60 263 1.0 12.0 0.00 0.20 0.20 92 1003.3
20260507024015 60 0.0 0.0 0.00 0.20 0.20 92 1003.3
20260507023515 60 0.0 0.0 0.00 0.20 0.20 92 1003.1
20260507023015 59 0.0 3.0 0.00 0.20 0.20 92 1003.1
20260507022515 59 252 0.0 3.0 0.00 0.20 0.20 92 1003.1
20260507022015 59 0.0 0.0 0.00 0.20 0.20 92 1003.1
20260507021515 59 0.0 0.0 0.00 0.20 0.20 92 1003.0
20260507021035 59 0.0 0.0 0.00 0.20 0.20 92 1002.8
20260507020515 59 0.0 0.0 0.00 0.20 0.20 92 1002.8
20260507020015 59 0.0 0.0 0.00 0.20 0.20 92 1002.6
20260507015515 59 0.0 0.0 0.00 0.20 0.20 92 1002.8
20260507015015 59 0.0 0.0 0.00 0.20 0.20 92 1002.8
20260507014515 59 0.0 0.0 0.00 0.20 0.20 92 1002.7
20260507014015 59 0.0 0.0 0.00 0.20 0.20 92 1002.7
20260507013535 59 0.0 0.0 0.00 0.20 0.20 92 1002.8
20260507013015 59 0.0 0.0 0.00 0.20 0.20 92 1002.8
20260507012515 59 0.0 0.0 0.00 0.20 0.20 92 1002.7
20260507012015 59 0.0 1.0 0.00 0.20 0.20 92 1002.8
20260507011515 59 160 0.0 1.0 0.00 0.20 0.20 92 1002.8
20260507011015 59 0.0 0.0 0.00 0.20 0.20 92 1002.8
20260507010514 59 0.0 0.0 0.01 0.20 0.20 92 1002.8
20260507010017 59 0.0 1.0 0.01 0.20 0.20 92 1002.8
20260507005516 59 194 0.0 1.0 0.01 0.20 0.20 92 1002.8
20260507005017 59 0.0 1.0 0.01 0.20 0.20 92 1002.8
20260507004536 59 200 0.0 1.0 0.01 0.20 0.20 92 1002.7
20260507004037 59 0.0 0.0 0.02 0.20 0.20 92 1002.6
20260507003516 59 0.0 0.0 0.02 0.20 0.20 92 1002.7
20260507003016 59 0.0 0.0 0.02 0.20 0.20 92 1002.6
20260507002517 59 0.0 6.0 0.02 0.20 0.20 92 1002.5
20260507002037 59 195 0.0 6.0 0.02 0.20 0.20 92 1002.5
20260507001516 59 0.0 0.0 0.03 0.20 0.20 92 1002.4
20260507001017 59 0.0 0.0 0.03 0.20 0.20 92 1002.4
20260507000516 60 0.0 1.0 0.02 0.19 0.19 92 1002.5
20260507000017 60 223 0.0 2.0 0.03 0.19 0.19 92 1002.6
20260506235516 60 200 0.0 4.0 0.03 0.19 0.19 92 1002.5
20260506235017 60 222 0.0 4.0 0.03 0.19 0.19 92 1002.4
20260506234517 60 0.0 3.0 0.03 0.19 0.19 92 1002.4
20260506234036 60 189 0.0 3.0 0.03 0.18 0.18 92 1002.4
20260506233516 60 0.0 0.0 0.03 0.18 0.18 92 1002.3
20260506233037 60 0.0 0.0 0.03 0.18 0.18 92 1002.3
20260506232556 60 0.0 0.0 0.04 0.18 0.18 92 1002.3
20260506232016 60 0.0 0.0 0.04 0.18 0.18 92 1002.3
20260506231516 60 0.0 1.0 0.03 0.17 0.17 92 1002.3
20260506231016 60 57 0.0 1.0 0.03 0.17 0.17 92 1002.3
20260506230516 60 0.0 0.0 0.03 0.17 0.17 92 1002.4
20260506230016 60 0.0 0.0 0.03 0.16 0.16 92 1002.4
20260506225536 60 0.0 0.0 0.03 0.16 0.16 92 1002.4
20260506225016 60 0.0 0.0 0.03 0.16 0.16 91 1002.5
20260506224516 60 0.0 0.0 0.04 0.16 0.16 91 1002.6
20260506224036 60 0.0 0.0 0.03 0.15 0.15 91 1002.6
20260506223557 60 0.0 0.0 0.03 0.15 0.15 91 1002.5
20260506223016 60 0.0 0.0 0.03 0.15 0.15 91 1002.5
20260506222516 60 0.0 1.0 0.03 0.14 0.14 91 1002.4
20260506222016 60 188 0.0 1.0 0.03 0.14 0.14 91 1002.4
20260506221536 60 0.0 0.0 0.03 0.14 0.14 91 1002.6
20260506221016 60 0.0 0.0 0.03 0.14 0.14 91 1002.6
20260506220516 60 0.0 1.0 0.03 0.14 0.14 91 1002.7
20260506220016 60 156 0.0 5.0 0.02 0.13 0.13 91 1002.7
20260506215516 60 249 0.0 5.0 0.03 0.13 0.13 91 1002.6
20260506215016 60 259 0.0 3.0 0.03 0.13 0.13 91 1002.6
20260506214516 60 200 0.0 9.0 0.02 0.12 0.12 91 1002.7
20260506214016 60 184 0.0 9.0 0.03 0.12 0.12 91 1002.7
20260506213516 60 0.0 0.0 0.03 0.12 0.12 91 1002.7
20260506213036 60 0.0 2.0 0.04 0.12 0.12 91 1002.7
20260506212516 60 215 0.0 2.0 0.03 0.11 0.11 91 1002.7
20260506212016 61 0.0 0.0 0.03 0.11 0.11 91 1002.8
20260506211516 61 0.0 0.0 0.04 0.11 0.11 91 1002.9
20260506211016 61 0.0 0.0 0.04 0.11 0.11 91 1003.0
20260506210536 61 0.0 7.0 0.05 0.11 0.11 91 1003.0
20260506210016 61 234 0.0 7.0 0.05 0.11 0.11 91 1003.1
20260506205516 61 0.0 0.0 0.04 0.10 0.10 91 1003.1
20260506205016 61 0.0 1.0 0.04 0.10 0.10 91 1003.2
20260506204516 61 189 0.0 3.0 0.04 0.10 0.10 91 1003.3
20260506204016 61 156 0.0 3.0 0.03 0.09 0.09 90 1003.3
20260506203516 61 0.0 1.0 0.03 0.09 0.09 90 1003.4
20260506203016 61 155 0.0 6.0 0.02 0.08 0.08 90 1003.3
20260506202516 61 177 0.0 8.0 0.02 0.08 0.08 90 1003.3
20260506202016 62 206 0.0 8.0 0.02 0.08 0.08 89 1003.3
20260506201536 62 158 0.0 2.0 0.01 0.07 0.07 90 1003.4
20260506201016 62 0.0 0.0 0.01 0.07 0.07 89 1003.4
20260506200516 62 0.0 0.0 0.00 0.06 0.06 89 1003.4
20260506200016 62 0.0 1.0 0.01 0.06 0.06 89 1003.4
20260506195516 62 199 0.0 1.0 0.01 0.06 0.06 89 1003.5
20260506195016 62 0.0 0.0 0.01 0.06 0.06 89 1003.5
20260506194516 62 0.0 0.0 0.02 0.06 0.06 89 1003.5
20260506194016 62 0.0 0.0 0.02 0.06 0.06 89 1003.5
20260506193536 62 0.0 0.0 0.02 0.06 0.06 89 1003.5
20260506193016 62 0.0 7.0 0.03 0.06 0.06 89 1003.4
20260506192516 63 222 0.0 7.0 0.03 0.06 0.06 90 1003.5
20260506192016 63 179 0.0 2.0 0.04 0.06 0.06 90 1003.5
20260506191516 63 0.0 0.0 0.04 0.06 0.06 89 1003.5
20260506191016 63 0.0 0.0 0.05 0.06 0.06 89 1003.4
20260506190516 63 0.0 0.0 0.05 0.06 0.06 89 1003.3
20260506190016 63 0.0 0.0 0.05 0.05 0.05 88 1003.4
20260506185516 63 0.0 1.0 0.05 0.05 0.05 88 1003.5
20260506185016 63 229 0.0 1.0 0.05 0.05 0.05 87 1003.6
20260506184516 63 0.0 0.0 0.04 0.04 0.04 86 1003.6
20260506184016 64 0.0 0.0 0.04 0.04 0.04 85 1003.8
20260506183536 64 0.0 1.0 0.04 0.04 0.04 84 1003.8
20260506183016 65 172 0.0 2.0 0.03 0.03 0.03 83 1003.8
20260506182516 65 168 0.0 2.0 0.03 0.03 0.03 82 1004.0
20260506182016 66 0.0 2.0 0.02 0.02 0.02 81 1004.1
20260506181516 67 189 0.0 2.0 0.02 0.02 0.02 78 1004.1
20260506181016 68 203 0.0 3.0 0.01 0.01 0.01 75 1004.2
20260506180536 69 257 0.0 11.0 0.01 0.01 0.01 72 1004.2
20260506180036 69 244 1.0 15.0 0.00 0.00 0.00 69 1004.1
20260506175516 70 232 2.0 15.0 0.00 0.00 0.00 67 1004.0
20260506175016 70 242 0.0 5.0 0.00 0.00 0.00 64 1003.9
20260506174536 71 220 0.0 5.0 0.00 0.00 0.00 62 1003.9
20260506174016 71 246 0.0 1.0 0.00 0.00 0.00 61 1003.8
20260506173536 71 0.0 1.0 0.00 0.00 0.00 61 1003.9
20260506173016 71 243 0.0 19.0 0.00 0.00 0.00 60 1003.9
20260506172536 71 216 4.0 19.0 0.00 0.00 0.00 60 1003.9
20260506172015 72 0.0 14.0 0.00 0.00 0.00 60 1003.7
20260506171516 72 237 0.0 14.0 0.00 0.00 0.00 59 1003.7
20260506171015 72 212 0.0 2.0 0.00 0.00 0.00 59 1003.7
20260506170515 72 0.0 10.0 0.00 0.00 0.00 60 1003.8
20260506170016 72 244 0.0 10.0 0.00 0.00 0.00 60 1003.9
20260506165515 72 240 0.0 3.0 0.00 0.00 0.00 61 1004.0
20260506165016 72 169 0.0 10.0 0.00 0.00 0.00 62 1004.0
20260506164515 71 222 0.0 10.0 0.00 0.00 0.00 63 1004.1
20260506164015 71 196 0.0 5.0 0.00 0.00 0.00 62 1004.2
20260506163515 71 208 0.0 5.0 0.00 0.00 0.00 64 1004.2
20260506163015 71 0.0 9.0 0.00 0.00 0.00 64 1004.4
20260506162556 70 206 0.0 9.0 0.00 0.00 0.00 64 1004.5
20260506162015 70 178 0.0 2.0 0.00 0.00 0.00 65 1004.5
20260506161616 70 0.0 6.0 0.00 0.00 0.00 66 1004.6